FABIEND Weather Reports


time (UTC)temp
C
wind
direction
speed
KPH
gust
KPH
rain 1hr
cm
rain 24hr
cm
rain mn
cm
humidity
%
barometer
mb
20260506174502 13 25 1.6 8.0 0.00 2.08 2.03 86 1010.0
20260506173116 13 273 1.6 4.8 0.00 2.08 2.03 85 1009.7
20260506171507 13 273 3.2 4.8 0.00 2.08 2.03 85 1009.6
20260506170103 13 273 3.2 6.4 0.00 2.08 2.03 85 1009.6
20260506164603 13 5 0.0 3.2 0.00 2.18 2.03 85 1009.6
20260506163002 13 247 1.6 6.4 0.00 2.18 2.03 83 1009.5
20260506161607 13 324 1.6 8.0 0.00 2.18 2.03 78 1009.4
20260506160002 13 25 4.8 11.3 0.00 2.36 2.03 80 1009.7
20260506154503 13 45 6.4 14.5 0.00 2.36 2.03 78 1009.9
20260506153103 15 16 8.0 16.1 0.00 2.36 2.03 76 1009.9
20260506151503 15 234 3.2 9.7 0.00 2.36 2.03 66 1009.8
20260506150108 16 17 1.6 11.3 0.00 2.36 2.03 69 1009.9
20260506144624 16 69 3.2 11.3 0.00 2.69 2.03 68 1009.9
20260506143012 16 5 6.4 14.5 0.00 2.69 2.03 65 1010.0
20260506141602 16 71 1.6 11.3 0.00 2.69 2.03 66 1010.0
20260506140007 16 28 4.8 11.3 0.00 2.69 2.03 63 1010.0
20260506134504 16 71 3.2 14.5 0.00 2.69 2.03 64 1010.1
20260506133102 16 199 1.6 8.0 0.00 2.69 2.03 68 1010.1
20260506131503 16 355 3.2 9.7 0.00 2.69 2.03 68 1010.1
20260506130140 -17 46 0.0 3.2 0.00 2.69 2.03 1010.0
20260506124604 -17 113 0.0 1.6 0.00 2.69 2.03 1010.1
20260506123003 -17 182 0.0 4.8 0.00 2.69 2.03 1010.4
20260506121604 -17 216 0.0 4.8 0.00 2.69 2.03 1010.5
20260506120003 -17 5 0.0 8.0 0.00 2.69 2.03 1010.5
20260506114502 -17 22 4.8 8.0 0.00 2.69 2.03 1010.3
20260506113108 -17 306 0.0 11.3 0.00 2.69 2.03 1010.4
20260506111502 -17 98 8.0 14.5 0.00 2.69 2.03 1010.2
20260506110105 -17 290 3.2 9.7 0.00 2.69 2.03 1010.4
20260506104541 -17 15 0.0 8.0 0.00 2.69 2.03 1010.5
20260506103037 -17 52 6.4 11.3 0.00 2.69 2.03 1010.6
20260506101547 -17 37 1.6 6.4 0.00 2.69 2.03 1010.7
20260506100031 13 206 0.0 6.4 0.00 2.69 2.03 78 1010.7
20260506094529 13 81 1.6 8.0 0.00 2.69 2.03 77 1010.7
20260506093024 12 61 0.0 6.4 0.00 2.69 2.03 80 1010.5
20260506091524 12 114 0.0 4.8 0.00 2.69 2.03 84 1010.4
20260506090021 12 94 0.0 8.0 0.00 2.69 2.03 88 1010.4
20260506084520 11 152 0.0 0.0 0.05 2.69 2.03 90 1010.3
20260506083014 11 152 0.0 3.2 0.05 2.69 2.03 92 1010.2
20260506081512 11 152 1.6 4.8 0.05 2.69 2.03 93 1010.0
20260506073100 10 180 1.6 6.4 0.00 3.25 1.98 93 1009.4
20260506071608 10 170 3.2 6.4 0.00 3.25 1.98 94 1009.2
20260506061550 10 228 3.2 8.0 0.00 3.94 1.98 94 1008.5
20260506044551 10 128 0.0 3.2 0.89 4.29 1.88 95 1007.7
20260506043046 10 82 3.2 4.8 0.61 3.99 1.57 95 1007.6
20260506041556 10 213 0.0 0.0 0.15 3.48 1.07 95 1007.2
20260506040044 10 213 0.0 4.8 0.18 3.45 1.04 95 1007.2
20260506034545 10 198 0.0 1.6 0.18 3.43 0.99 95 1007.2
20260506033042 10 198 0.0 4.8 0.15 3.38 0.94 95 1007.2
20260506031542 10 198 1.6 4.8 0.15 3.33 0.89 95 1007.3
20260506030042 10 332 0.0 0.0 0.23 3.30 0.86 95 1007.3
20260506024542 10 332 0.0 4.8 0.23 3.45 0.81 95 1007.3
20260506023039 10 222 0.0 3.2 0.23 3.43 0.79 95 1007.5
20260506021538 10 222 0.0 0.0 0.18 3.38 0.71 94 1007.6
20260506020038 10 222 0.0 4.8 0.08 3.25 0.61 94 1007.8
20260506014546 10 222 0.0 4.8 0.10 3.68 0.61 94 1007.6
20260506013038 10 222 0.0 0.0 0.25 3.66 0.58 94 1007.6
20260506011539 10 222 0.0 6.4 0.38 3.63 0.56 94 1007.8
20260506010032 10 213 3.2 4.8 0.43 3.63 0.53 94 1008.1
20260506004538 10 213 1.6 3.2 0.48 3.99 0.51 94 1008.4
20260506003026 10 213 0.0 0.0 0.30 3.81 0.30 94 1008.6
20260506001525 10 213 0.0 1.6 0.18 3.68 0.18 94 1008.8
20260506000031 10 213 0.0 4.8 0.13 3.63 0.13 94 1009.0
20260505234522 10 240 0.0 0.0 0.03 3.66 0.03 94 1009.1
20260505233019 10 213 0.0 0.0 0.00 3.63 0.00 94 1009.2
20260505231518 10 213 0.0 0.0 0.00 3.63 0.00 93 1009.3
20260505230017 10 213 0.0 0.0 0.00 3.63 0.00 93 1009.5
20260505224519 10 213 0.0 0.0 0.00 3.76 0.00 93 1009.7
20260505223012 10 213 0.0 0.0 0.00 3.76 0.00 92 1009.9
20260505221511 10 213 0.0 4.8 0.00 3.76 0.00 93 1010.1
20260505220023 10 213 0.0 4.8 0.05 3.76 0.00 92 1010.2
20260505214513 10 213 0.0 0.0 0.05 3.94 3.76 91 1010.3
20260505213006 10 213 0.0 6.4 0.05 3.94 3.76 92 1010.4
20260505211506 10 213 3.2 6.4 0.05 3.94 3.76 92 1010.7
20260505210008 10 207 1.6 6.4 0.00 3.91 3.71 91 1011.1
20260505204510 11 233 3.2 4.8 0.00 3.96 3.71 91 1011.1
20260505203002 11 199 0.0 0.0 0.00 3.96 3.71 90 1011.1
20260505201607 11 199 0.0 3.2 0.00 3.96 3.71 90 1010.9
20260505194504 11 199 3.2 6.4 0.03 3.96 3.71 89 1010.7
20260505193103 11 164 3.2 8.0 0.03 3.96 3.71 91 1010.4
20260505191504 11 194 1.6 9.7 0.00 3.94 3.71 91 1010.5
20260505190003 11 192 1.6 11.3 0.00 3.99 3.71 91 1010.4
20260505184610 12 42 3.2 9.7 0.00 3.99 3.71 90 1010.0
20260505183004 12 355 0.0 8.0 0.00 3.99 3.71 90 1009.9
20260505181603 11 209 1.6 9.7 0.00 3.99 3.71 91 1009.5
20260505180103 11 211 3.2 6.4 0.00 3.99 3.71 90 1009.1